,,Stat5,,Stat1,,Stat2,,Stat3,,Stat4,,Wind1,,Wind1,
time,status,PA1M_AVG,status,PR1M_SUM,status,RH1M_AVG,status,SR1M_AVG,status,TA1M_AVG,status,W1dAve1m,status,W1sAve1m,
2003-03-28, 00:00:00,VALID,918.951,VALID,0,VALID,99.723,VALID,0,VALID,19.2044,VALID,139,VALID,1.08235,
2003-03-28, 00:01:00,VALID,918.964,VALID,0,VALID,99.7294,VALID,0,VALID,19.2077,VALID,155,VALID,1.18853,
2003-03-28, 00:02:00,VALID,918.968,VALID,0.2,VALID,99.7332,VALID,-0.0339617,VALID,19.2141,VALID,152,VALID,1.03168,
2003-03-28, 00:03:00,VALID,918.978,VALID,0,VALID,99.7307,VALID,-0.0169808,VALID,19.2137,VALID,144,VALID,0.734786,
2003-03-28, 00:04:00,VALID,918.995,VALID,0,VALID,99.7243,VALID,0,VALID,19.2199,VALID,155,VALID,0.694141,
2003-03-28, 00:05:00,VALID,918.97,VALID,0,VALID,99.737,VALID,0,VALID,19.2204,VALID,159,VALID,1.12734,
2003-03-28, 00:06:00,VALID,918.987,VALID,0,VALID,99.7307,VALID,0,VALID,19.2107,VALID,153,VALID,0.954527,
2003-03-28, 00:07:00,VALID,918.958,VALID,0,VALID,99.7345,VALID,-0.0169808,VALID,19.2077,VALID,159,VALID,0.723606,
2003-03-28, 00:08:00,VALID,918.943,VALID,0,VALID,99.7383,VALID,-0.0339617,VALID,19.2176,VALID,155,VALID,0.629112,
2003-03-28, 00:09:00,VALID,918.952,VALID,0,VALID,99.7447,VALID,-0.0339617,VALID,19.2241,VALID,156,VALID,0.77168,
2003-03-28, 00:10:00,VALID,918.932,VALID,0,VALID,99.7485,VALID,0,VALID,19.2305,VALID,161,VALID,0.758235,
2003-03-28, 00:11:00,VALID,918.916,VALID,0,VALID,99.7497,VALID,0,VALID,19.2271,VALID,151,VALID,0.848047,
2003-03-28, 00:12:00,VALID,918.904,VALID,0,VALID,99.7408,VALID,0,VALID,19.2206,VALID,156,VALID,1.16026,
2003-03-28, 00:13:00,VALID,918.893,VALID,0,VALID,99.7447,VALID,0,VALID,19.2176,VALID,149,VALID,0.908918,
2003-03-28, 00:14:00,VALID,918.874,VALID,0,VALID,99.7421,VALID,-0.0169808,VALID,19.2176,VALID,148,VALID,0.790752,
2003-03-28, 00:15:00,VALID,918.858,VALID,0,VALID,99.7332,VALID,0,VALID,19.2174,VALID,133,VALID,0.754808,
2003-03-28, 00:16:00,VALID,918.854,VALID,0,VALID,99.737,VALID,0,VALID,19.2077,VALID,112,VALID,0.605183,
2003-03-28, 00:17:00,VALID,918.827,VALID,0,VALID,99.718,VALID,0,VALID,19.2015,VALID,100,VALID,0.50514,
2003-03-28, 00:18:00,VALID,918.818,VALID,0,VALID,99.7205,VALID,-0.0339617,VALID,19.1952,VALID,104,VALID,0.385617,
2003-03-28, 00:19:00,VALID,918.812,VALID,0,VALID,99.7116,VALID,-0.0339617,VALID,19.1821,VALID,81,VALID,0.353125,
2003-03-28, 00:20:00,VALID,918.791,VALID,0,VALID,99.7116,VALID,-0.0339617,VALID,19.1751,VALID,75,VALID,0.30609,
2003-03-28, 00:21:00,VALID,918.784,VALID,0,VALID,99.7154,VALID,0,VALID,19.1751,VALID,75,VALID,0.399609,
2003-03-28, 00:22:00,VALID,918.77,VALID,0,VALID,99.7129,VALID,-0.0509425,VALID,19.1687,VALID,80,VALID,0.424079,
2003-03-28, 00:23:00,VALID,918.746,VALID,0,VALID,99.7103,VALID,-0.0169808,VALID,19.1758,VALID,89,VALID,0.401677,
2003-03-28, 00:24:00,VALID,918.713,VALID,0,VALID,99.7052,VALID,0,VALID,19.1691,VALID,90,VALID,0.661305,
2003-03-28, 00:25:00,VALID,918.692,VALID,0.2,VALID,99.69,VALID,-0.0169808,VALID,19.1428,VALID,90,VALID,0.63199,
2003-03-28, 00:26:00,VALID,918.659,VALID,0,VALID,99.6811,VALID,0,VALID,19.143,VALID,87,VALID,0.871622,
2003-03-28, 00:27:00,VALID,918.666,VALID,0,VALID,99.6696,VALID,0,VALID,19.1192,VALID,77,VALID,0.938978,
2003-03-28, 00:28:00,VALID,918.634,VALID,0,VALID,99.6582,VALID,0,VALID,19.1202,VALID,72,VALID,0.997523,
2003-03-28, 00:29:00,VALID,918.64,VALID,0,VALID,99.662,VALID,-0.0339617,VALID,19.1043,VALID,66,VALID,0.869449,
2003-03-28, 00:30:00,VALID,918.622,VALID,0,VALID,99.6518,VALID,-0.0169808,VALID,19.101,VALID,60,VALID,0.898232,
2003-03-28, 00:31:00,VALID,918.609,VALID,0,VALID,99.6468,VALID,0.0169808,VALID,19.0814,VALID,59,VALID,1.10156,
2003-03-28, 00:32:00,VALID,918.605,VALID,0,VALID,99.6442,VALID,-0.0339617,VALID,19.0777,VALID,61,VALID,0.849023,
2003-03-28, 00:33:00,VALID,918.586,VALID,0,VALID,99.6289,VALID,0.0169808,VALID,19.0652,VALID,67,VALID,0.880859,
2003-03-28, 00:34:00,VALID,918.585,VALID,0,VALID,99.6353,VALID,-0.0169808,VALID,19.0593,VALID,71,VALID,1.01002,
2003-03-28, 00:35:00,VALID,918.564,VALID,0,VALID,99.6315,VALID,-0.0169808,VALID,19.0488,VALID,59,VALID,0.686328,
2003-03-28, 00:36:00,VALID,918.554,VALID,0,VALID,99.6264,VALID,0,VALID,19.0523,VALID,67,VALID,0.621795,
2003-03-28, 00:37:00,VALID,918.536,VALID,0,VALID,99.6302,VALID,-0.0169808,VALID,19.0488,VALID,60,VALID,0.715545,
2003-03-28, 00:38:00,VALID,918.526,VALID,0,VALID,99.6404,VALID,-0.0169808,VALID,19.0593,VALID,46,VALID,0.718117,
2003-03-28, 00:39:00,VALID,918.521,VALID,0,VALID,99.6366,VALID,-0.0339617,VALID,19.0588,VALID,46,VALID,0.489258,
2003-03-28, 00:40:00,VALID,918.495,VALID,0,VALID,99.6455,VALID,-0.0339617,VALID,19.0786,VALID,46,VALID,0.392188,
2003-03-28, 00:41:00,VALID,918.45,VALID,0,VALID,99.6607,VALID,-0.0169808,VALID,19.069,VALID,53,VALID,0.454153,
2003-03-28, 00:42:00,VALID,918.432,VALID,0.2,VALID,99.6607,VALID,0,VALID,19.0493,VALID,62,VALID,0.647254,
2003-03-28, 00:43:00,VALID,918.413,VALID,0,VALID,99.6595,VALID,0,VALID,19.0526,VALID,46,VALID,0.708008,
2003-03-28, 00:44:00,VALID,918.389,VALID,0,VALID,99.6671,VALID,0,VALID,19.0461,VALID,45,VALID,0.685497,
2003-03-28, 00:45:00,VALID,918.367,VALID,0,VALID,99.6747,VALID,-0.0169808,VALID,19.0496,VALID,47,VALID,0.578125,
2003-03-28, 00:46:00,VALID,918.352,VALID,0,VALID,99.6696,VALID,-0.0169808,VALID,19.0526,VALID,58,VALID,0.705929,
2003-03-28, 00:47:00,VALID,918.329,VALID,0,VALID,99.6849,VALID,-0.0339617,VALID,19.0496,VALID,55,VALID,0.426448,
2003-03-28, 00:48:00,VALID,918.3,VALID,0,VALID,99.6925,VALID,-0.0169808,VALID,19.053,VALID,42,VALID,0.642103,
2003-03-28, 00:49:00,VALID,918.286,VALID,0,VALID,99.6963,VALID,-0.0509425,VALID,19.0563,VALID,35,VALID,0.638822,
2003-03-28, 00:50:00,VALID,918.269,VALID,0,VALID,99.7014,VALID,-0.0169808,VALID,19.069,VALID,33,VALID,0.554883,
2003-03-28, 00:51:00,VALID,918.25,VALID,0,VALID,99.7078,VALID,-0.0169808,VALID,19.0593,VALID,50,VALID,0.75686,
2003-03-28, 00:52:00,VALID,918.24,VALID,0,VALID,99.7116,VALID,-0.0169808,VALID,19.0431,VALID,51,VALID,0.617932,
2003-03-28, 00:53:00,VALID,918.216,VALID,0,VALID,99.7154,VALID,-0.0849042,VALID,19.0438,VALID,56,VALID,0.610431,
2003-03-28, 00:54:00,VALID,918.196,VALID,0,VALID,99.7192,VALID,-0.0679233,VALID,19.0207,VALID,69,VALID,0.726563,
2003-03-28, 00:55:00,VALID,918.163,VALID,0,VALID,99.7167,VALID,-0.0509425,VALID,18.9981,VALID,79,VALID,0.877858,
2003-03-28, 00:56:00,VALID,918.135,VALID,0,VALID,99.7129,VALID,-0.0509425,VALID,18.9919,VALID,78,VALID,0.867821,
2003-03-28, 00:57:00,VALID,918.14,VALID,0,VALID,99.7065,VALID,-0.0679233,VALID,18.9789,VALID,76,VALID,0.682031,
2003-03-28, 00:58:00,VALID,918.133,VALID,0,VALID,99.7192,VALID,-0.0509425,VALID,18.9722,VALID,70,VALID,0.732143,
2003-03-28, 00:59:00,VALID,918.108,VALID,0,VALID,99.7218,VALID,-0.0679233,VALID,18.9625,VALID,52,VALID,0.565179,
2003-03-28, 01:00:00,VALID,918.114,VALID,0,VALID,99.7256,VALID,-0.101885,VALID,18.9695,VALID,32,VALID,0.332366,
2003-03-28, 01:01:00,VALID,918.099,VALID,0,VALID,99.7459,VALID,-0.0339617,VALID,18.9886,VALID,32,VALID,0.453547,
2003-03-28, 01:02:00,VALID,918.077,VALID,0,VALID,99.7587,VALID,-0.0339617,VALID,19.0046,VALID,32,VALID,0.559416,
2003-03-28, 01:03:00,VALID,918.067,VALID,0,VALID,99.7587,VALID,-0.0679233,VALID,19.0048,VALID,32,VALID,0.638514,
2003-03-28, 01:04:00,VALID,918.036,VALID,0,VALID,99.7625,VALID,-0.0849042,VALID,19.0083,VALID,32,VALID,0.613281,
2003-03-28, 01:05:00,VALID,918.022,VALID,0,VALID,99.7548,VALID,-0.0339617,VALID,19.0113,VALID,36,VALID,0.653577,
2003-03-28, 01:06:00,VALID,918.005,VALID,0,VALID,99.765,VALID,-0.0679233,VALID,19.0053,VALID,46,VALID,0.608203,
2003-03-28, 01:07:00,VALID,918.001,VALID,0,VALID,99.7625,VALID,-0.0849042,VALID,18.9884,VALID,48,VALID,0.632353,
2003-03-28, 01:08:00,VALID,917.979,VALID,0,VALID,99.7574,VALID,-0.0679233,VALID,18.9859,VALID,57,VALID,0.780664,
2003-03-28, 01:09:00,VALID,917.966,VALID,0,VALID,99.7675,VALID,-0.0849042,VALID,18.9692,VALID,46,VALID,0.904247,
2003-03-28, 01:10:00,VALID,917.938,VALID,0,VALID,99.7675,VALID,-0.0679233,VALID,18.9725,VALID,53,VALID,0.909206,
2003-03-28, 01:11:00,VALID,917.927,VALID,0,VALID,99.7675,VALID,-0.0679233,VALID,18.969,VALID,40,VALID,0.662861,
2003-03-28, 01:12:00,VALID,917.908,VALID,0,VALID,99.7701,VALID,-0.0509425,VALID,18.9663,VALID,47,VALID,0.578536,
2003-03-28, 01:13:00,VALID,917.911,VALID,0,VALID,99.7675,VALID,-0.0509425,VALID,18.963,VALID,52,VALID,0.54387,
2003-03-28, 01:14:00,VALID,917.887,VALID,0,VALID,99.7777,VALID,-0.0679233,VALID,18.9533,VALID,56,VALID,0.553735,
2003-03-28, 01:15:00,VALID,917.88,VALID,0,VALID,99.7714,VALID,-0.0509425,VALID,18.9461,VALID,69,VALID,0.445313,
2003-03-28, 01:16:00,VALID,917.89,VALID,0,VALID,99.7587,VALID,-0.0679233,VALID,18.9406,VALID,82,VALID,0.636949,
2003-03-28, 01:17:00,VALID,917.876,VALID,0,VALID,99.7472,VALID,-0.0339617,VALID,18.9143,VALID,102,VALID,0.810938,
2003-03-28, 01:18:00,VALID,917.85,VALID,0,VALID,99.7612,VALID,-0.0509425,VALID,18.918,VALID,93,VALID,0.871833,
2003-03-28, 01:19:00,VALID,917.853,VALID,0,VALID,99.7561,VALID,-0.0509425,VALID,18.9044,VALID,122,VALID,0.812695,
2003-03-28, 01:20:00,VALID,917.873,VALID,0,VALID,99.7675,VALID,-0.0679233,VALID,18.9081,VALID,121,VALID,0.601563,
2003-03-28, 01:21:00,VALID,917.874,VALID,0,VALID,99.7675,VALID,-0.0169808,VALID,18.9178,VALID,118,VALID,0.667302,
2003-03-28, 01:22:00,VALID,917.871,VALID,0,VALID,99.7688,VALID,-0.0679233,VALID,18.9046,VALID,116,VALID,0.870566,
2003-03-28, 01:23:00,VALID,917.855,VALID,0,VALID,99.7714,VALID,-0.0679233,VALID,18.921,VALID,113,VALID,0.707332,
2003-03-28, 01:24:00,VALID,917.855,VALID,0,VALID,99.7752,VALID,-0.0509425,VALID,18.9245,VALID,85,VALID,0.412729,
2003-03-28, 01:25:00,VALID,917.85,VALID,0.2,VALID,99.7739,VALID,-0.0679233,VALID,18.9369,VALID,67,VALID,0.505962,
2003-03-28, 01:26:00,VALID,917.843,VALID,0,VALID,99.7599,VALID,-0.101885,VALID,18.9277,VALID,92,VALID,0.703926,
2003-03-28, 01:27:00,VALID,917.863,VALID,0,VALID,99.7574,VALID,-0.0679233,VALID,18.9111,VALID,98,VALID,0.754297,
2003-03-28, 01:28:00,VALID,917.862,VALID,0,VALID,99.7447,VALID,-0.0169808,VALID,18.9113,VALID,99,VALID,0.644231,
2003-03-28, 01:29:00,VALID,917.845,VALID,0,VALID,99.7459,VALID,-0.0679233,VALID,18.9215,VALID,122,VALID,0.589453,
2003-03-28, 01:30:00,VALID,917.847,VALID,0,VALID,99.7523,VALID,-0.0849042,VALID,18.9175,VALID,122,VALID,0.212941,
2003-03-28, 01:31:00,VALID,917.864,VALID,0,VALID,99.7434,VALID,-0.0509425,VALID,18.9275,VALID,118,VALID,0.366235,
2003-03-28, 01:32:00,VALID,917.863,VALID,0,VALID,99.737,VALID,-0.0679233,VALID,18.9215,VALID,116,VALID,0.0496324,
2003-03-28, 01:33:00,VALID,917.861,VALID,0,VALID,99.7447,VALID,-0.0679233,VALID,18.9245,VALID,116,VALID,0.160362,
2003-03-28, 01:34:00,VALID,917.862,VALID,0,VALID,99.7332,VALID,-0.0849042,VALID,18.9275,VALID,117,VALID,0.155405,
2003-03-28, 01:35:00,VALID,917.855,VALID,0,VALID,99.7332,VALID,-0.0509425,VALID,18.9344,VALID,118,VALID,0.238598,
2003-03-28, 01:36:00,VALID,917.845,VALID,0,VALID,99.7319,VALID,-0.0509425,VALID,18.9409,VALID,118,VALID,0.0384909,
2003-03-28, 01:37:00,VALID,917.857,VALID,0,VALID,99.737,VALID,-0.0679233,VALID,18.9635,VALID,118,VALID,0,
2003-03-28, 01:38:00,VALID,917.847,VALID,0,VALID,99.7421,VALID,-0.0339617,VALID,18.973,VALID,118,VALID,0,
2003-03-28, 01:39:00,VALID,917.841,VALID,0,VALID,99.7523,VALID,-0.0679233,VALID,18.9692,VALID,118,VALID,0,
2003-03-28, 01:40:00,VALID,917.826,VALID,0,VALID,99.7408,VALID,-0.0849042,VALID,18.9797,VALID,137,VALID,0.0580078,
2003-03-28, 01:41:00,VALID,917.822,VALID,0,VALID,99.7421,VALID,-0.0849042,VALID,18.9762,VALID,282,VALID,0.290799,
2003-03-28, 01:42:00,VALID,917.807,VALID,0,VALID,99.737,VALID,-0.0339617,VALID,18.9725,VALID,281,VALID,0.490385,
2003-03-28, 01:43:00,VALID,917.81,VALID,0,VALID,99.7434,VALID,-0.0679233,VALID,18.9822,VALID,281,VALID,0.417188,
2003-03-28, 01:44:00,VALID,917.802,VALID,0,VALID,99.7472,VALID,-0.0509425,VALID,18.9623,VALID,281,VALID,0.396234,
2003-03-28, 01:45:00,VALID,917.806,VALID,0,VALID,99.7485,VALID,-0.0509425,VALID,18.9663,VALID,283,VALID,0.389423,
2003-03-28, 01:46:00,VALID,917.794,VALID,0,VALID,99.751,VALID,-0.0509425,VALID,18.9762,VALID,294,VALID,0.392103,
2003-03-28, 01:47:00,VALID,917.773,VALID,0,VALID,99.7675,VALID,-0.0509425,VALID,18.9861,VALID,297,VALID,0.159961,
2003-03-28, 01:48:00,VALID,917.765,VALID,0,VALID,99.7739,VALID,-0.0849042,VALID,18.9993,VALID,297,VALID,0.0669922,
2003-03-28, 01:49:00,VALID,917.736,VALID,0,VALID,99.7765,VALID,-0.0849042,VALID,18.9792,VALID,297,VALID,0,
2003-03-28, 01:50:00,VALID,917.733,VALID,0,VALID,99.779,VALID,-0.101885,VALID,18.9861,VALID,297,VALID,0,
2003-03-28, 01:51:00,VALID,917.727,VALID,0,VALID,99.7866,VALID,-0.0679233,VALID,18.9854,VALID,297,VALID,0,
2003-03-28, 01:52:00,VALID,917.726,VALID,0,VALID,99.7917,VALID,-0.0509425,VALID,18.9921,VALID,297,VALID,0,
2003-03-28, 01:53:00,VALID,917.707,VALID,0,VALID,99.7904,VALID,0,VALID,19.0011,VALID,297,VALID,0,
2003-03-28, 01:54:00,VALID,917.722,VALID,0,VALID,99.793,VALID,0,VALID,18.9874,VALID,297,VALID,0,
2003-03-28, 01:55:00,VALID,917.717,VALID,0,VALID,99.8057,VALID,0,VALID,18.9845,VALID,297,VALID,0,
2003-03-28, 01:56:00,VALID,917.725,VALID,0,VALID,99.7981,VALID,0,VALID,19.0043,VALID,297,VALID,0,
2003-03-28, 01:57:00,VALID,917.721,VALID,0,VALID,99.8032,VALID,0,VALID,18.9874,VALID,297,VALID,0,
2003-03-28, 01:58:00,VALID,917.705,VALID,0,VALID,99.8095,VALID,0,VALID,18.9946,VALID,297,VALID,0,
2003-03-28, 01:59:00,VALID,917.71,VALID,0,VALID,99.8095,VALID,0,VALID,18.9874,VALID,297,VALID,0,
2003-03-28, 02:00:00,VALID,917.695,VALID,0,VALID,99.8159,VALID,0.0169808,VALID,18.9941,VALID,331,VALID,0.197545,
2003-03-28, 02:01:00,VALID,917.68,VALID,0,VALID,99.8121,VALID,0.0339617,VALID,19.0036,VALID,10,VALID,0.362331,
2003-03-28, 02:02:00,VALID,917.66,VALID,0,VALID,99.8095,VALID,0.0339617,VALID,19.0004,VALID,10,VALID,0.355945,
2003-03-28, 02:03:00,VALID,917.663,VALID,0,VALID,99.8095,VALID,0.0339617,VALID,18.9971,VALID,10,VALID,0.245617,
2003-03-28, 02:04:00,VALID,917.663,VALID,0,VALID,99.8184,VALID,0.0339617,VALID,18.9872,VALID,10,VALID,0.135346,
2003-03-28, 02:05:00,VALID,917.639,VALID,0,VALID,99.821,VALID,0.0509425,VALID,18.9777,VALID,10,VALID,0.158984,
2003-03-28, 02:06:00,VALID,917.628,VALID,0,VALID,99.8082,VALID,0.0509425,VALID,18.9683,VALID,10,VALID,0.10625,
2003-03-28, 02:07:00,VALID,917.616,VALID,0,VALID,99.821,VALID,0.0169808,VALID,18.9787,VALID,10,VALID,0.0379464,
2003-03-28, 02:08:00,VALID,917.603,VALID,0,VALID,99.826,VALID,0.0509425,VALID,18.9745,VALID,10,VALID,0.1375,
2003-03-28, 02:09:00,VALID,917.584,VALID,0,VALID,99.826,VALID,0.0169808,VALID,18.9678,VALID,12,VALID,0.380912,
2003-03-28, 02:10:00,VALID,917.559,VALID,0,VALID,99.8235,VALID,0.0679233,VALID,18.9646,VALID,23,VALID,0.473684,
2003-03-28, 02:11:00,VALID,917.54,VALID,0,VALID,99.826,VALID,0.0169808,VALID,18.9447,VALID,23,VALID,0.41913,
2003-03-28, 02:12:00,VALID,917.55,VALID,0,VALID,99.8311,VALID,0.0339617,VALID,18.9748,VALID,23,VALID,0.428043,
2003-03-28, 02:13:00,VALID,917.535,VALID,0,VALID,99.8286,VALID,0,VALID,18.977,VALID,23,VALID,0.587171,
2003-03-28, 02:14:00,VALID,917.529,VALID,0,VALID,99.8299,VALID,0.0509425,VALID,18.9482,VALID,23,VALID,0.839844,
2003-03-28, 02:15:00,VALID,917.517,VALID,0,VALID,99.8299,VALID,0.0849042,VALID,18.897,VALID,25,VALID,0.895221,
2003-03-28, 02:16:00,VALID,917.501,VALID,0,VALID,99.8324,VALID,0.0679233,VALID,18.9037,VALID,20,VALID,0.792383,
2003-03-28, 02:17:00,VALID,917.477,VALID,0,VALID,99.826,VALID,0.0849042,VALID,18.8803,VALID,29,VALID,0.751603,
2003-03-28, 02:18:00,VALID,917.474,VALID,0,VALID,99.8235,VALID,0.0509425,VALID,18.8736,VALID,21,VALID,0.432644,
2003-03-28, 02:19:00,VALID,917.487,VALID,0,VALID,99.8337,VALID,0.0509425,VALID,18.8935,VALID,21,VALID,0.539463,
2003-03-28, 02:20:00,VALID,917.482,VALID,0,VALID,99.8388,VALID,0.0339617,VALID,18.8873,VALID,21,VALID,0.554071,
2003-03-28, 02:21:00,VALID,917.467,VALID,0,VALID,99.8464,VALID,0.0169808,VALID,18.8905,VALID,21,VALID,0.423478,
2003-03-28, 02:22:00,VALID,917.456,VALID,0,VALID,99.8413,VALID,-0.0169808,VALID,18.8937,VALID,21,VALID,0.328506,
2003-03-28, 02:23:00,VALID,917.458,VALID,0,VALID,99.854,VALID,-0.0339617,VALID,18.9011,VALID,21,VALID,0.373397,
2003-03-28, 02:24:00,VALID,917.438,VALID,0,VALID,99.8527,VALID,-0.0509425,VALID,18.8979,VALID,21,VALID,0.300092,
2003-03-28, 02:25:00,VALID,917.439,VALID,0,VALID,99.8451,VALID,-0.0849042,VALID,18.9116,VALID,21,VALID,0.251563,
2003-03-28, 02:26:00,VALID,917.422,VALID,0,VALID,99.8591,VALID,-0.0849042,VALID,18.9108,VALID,21,VALID,0.147804,
2003-03-28, 02:27:00,VALID,917.417,VALID,0,VALID,99.8604,VALID,-0.0509425,VALID,18.9168,VALID,21,VALID,0.00195313,
2003-03-28, 02:28:00,VALID,917.41,VALID,0,VALID,99.8578,VALID,-0.0849042,VALID,18.9145,VALID,21,VALID,0.21875,
2003-03-28, 02:29:00,VALID,917.391,VALID,0,VALID,99.8299,VALID,-0.0849042,VALID,18.879,VALID,25,VALID,0.354992,
2003-03-28, 02:30:00,VALID,917.377,VALID,0,VALID,99.8388,VALID,-0.0849042,VALID,18.8695,VALID,50,VALID,0.394637,
2003-03-28, 02:31:00,VALID,917.366,VALID,0,VALID,99.84,VALID,-0.0509425,VALID,18.8598,VALID,50,VALID,0.338742,
2003-03-28, 02:32:00,VALID,917.344,VALID,0,VALID,99.8489,VALID,-0.101885,VALID,18.84,VALID,50,VALID,0.416159,
2003-03-28, 02:33:00,VALID,917.348,VALID,0,VALID,99.8451,VALID,-0.0849042,VALID,18.8402,VALID,50,VALID,0.192434,
2003-03-28, 02:34:00,VALID,917.34,VALID,0,VALID,99.8515,VALID,-0.101885,VALID,18.8566,VALID,29,VALID,0.378606,
2003-03-28, 02:35:00,VALID,917.337,VALID,0,VALID,99.8426,VALID,-0.0679233,VALID,18.8467,VALID,21,VALID,0.182617,
2003-03-28, 02:36:00,VALID,917.322,VALID,0,VALID,99.8566,VALID,-0.0679233,VALID,18.8497,VALID,21,VALID,0,
2003-03-28, 02:37:00,VALID,917.306,VALID,0,VALID,99.8489,VALID,-0.0169808,VALID,18.8626,VALID,21,VALID,0.175195,
2003-03-28, 02:38:00,VALID,917.301,VALID,0,VALID,99.854,VALID,0.0339617,VALID,18.8649,VALID,21,VALID,0.200521,
2003-03-28, 02:39:00,VALID,917.296,VALID,0,VALID,99.8502,VALID,0.0509425,VALID,18.8912,VALID,21,VALID,0.182165,
2003-03-28, 02:40:00,VALID,917.299,VALID,0,VALID,99.8718,VALID,0.0169808,VALID,18.8771,VALID,19,VALID,0.298943,
2003-03-28, 02:41:00,VALID,917.311,VALID,0,VALID,99.8604,VALID,0.0169808,VALID,18.8709,VALID,17,VALID,0.328331,
2003-03-28, 02:42:00,VALID,917.3,VALID,0,VALID,99.8718,VALID,0.0339617,VALID,18.8868,VALID,13,VALID,0.183699,
2003-03-28, 02:43:00,VALID,917.308,VALID,0,VALID,99.8553,VALID,0.0339617,VALID,18.9032,VALID,13,VALID,0.162373,
2003-03-28, 02:44:00,VALID,917.31,VALID,0,VALID,99.8616,VALID,0.0169808,VALID,18.9201,VALID,13,VALID,0,
2003-03-28, 02:45:00,VALID,917.296,VALID,0,VALID,99.8667,VALID,0.0509425,VALID,18.9029,VALID,13,VALID,0.115748,
2003-03-28, 02:46:00,VALID,917.342,VALID,0,VALID,99.8769,VALID,0.0339617,VALID,18.9231,VALID,13,VALID,0.215049,
2003-03-28, 02:47:00,VALID,917.351,VALID,0,VALID,99.8769,VALID,0.0169808,VALID,18.933,VALID,13,VALID,0.0570747,
2003-03-28, 02:48:00,VALID,917.353,VALID,0,VALID,99.8718,VALID,0.0339617,VALID,18.9427,VALID,13,VALID,0.135742,
2003-03-28, 02:49:00,VALID,917.359,VALID,0,VALID,99.8782,VALID,0,VALID,18.9491,VALID,9,VALID,0.26671,
2003-03-28, 02:50:00,VALID,917.361,VALID,0,VALID,99.8909,VALID,0.0509425,VALID,18.9678,VALID,8,VALID,0.0741186,
2003-03-28, 02:51:00,VALID,917.363,VALID,0,VALID,99.8858,VALID,0.0169808,VALID,18.9909,VALID,8,VALID,0.0960938,
2003-03-28, 02:52:00,VALID,917.355,VALID,0,VALID,99.8807,VALID,-0.0169808,VALID,18.9916,VALID,8,VALID,0.00140224,
2003-03-28, 02:53:00,VALID,917.343,VALID,0,VALID,99.896,VALID,-0.0339617,VALID,18.9852,VALID,8,VALID,0,
2003-03-28, 02:54:00,VALID,917.339,VALID,0,VALID,99.8922,VALID,-0.0509425,VALID,19.0013,VALID,8,VALID,0.0306166,
2003-03-28, 02:55:00,VALID,917.335,VALID,0,VALID,99.8884,VALID,-0.0509425,VALID,19.0147,VALID,8,VALID,0.0210938,
2003-03-28, 02:56:00,VALID,917.334,VALID,0,VALID,99.9023,VALID,-0.0169808,VALID,19.0113,VALID,7,VALID,0.246289,
2003-03-28, 02:57:00,VALID,917.33,VALID,0,VALID,99.8871,VALID,-0.0679233,VALID,19.005,VALID,250,VALID,0.488692,
2003-03-28, 02:58:00,VALID,917.335,VALID,0,VALID,99.8922,VALID,-0.0679233,VALID,18.9859,VALID,234,VALID,0.331676,
2003-03-28, 02:59:00,VALID,917.327,VALID,0,VALID,99.8909,VALID,-0.0679233,VALID,18.9725,VALID,199,VALID,0.294727,
2003-03-28, 03:00:00,VALID,917.338,VALID,0,VALID,99.896,VALID,-0.0509425,VALID,18.9757,VALID,203,VALID,0.485978,
2003-03-28, 03:01:00,VALID,917.337,VALID,0,VALID,99.8909,VALID,-0.0679233,VALID,18.9797,VALID,199,VALID,0.367773,
2003-03-28, 03:02:00,VALID,917.34,VALID,0,VALID,99.8871,VALID,-0.0339617,VALID,18.9593,VALID,185,VALID,0.533253,
2003-03-28, 03:03:00,VALID,917.342,VALID,0,VALID,99.8871,VALID,-0.0509425,VALID,18.9501,VALID,175,VALID,0.801639,
2003-03-28, 03:04:00,VALID,917.342,VALID,0,VALID,99.8998,VALID,-0.0509425,VALID,18.9138,VALID,174,VALID,0.866132,
2003-03-28, 03:05:00,VALID,917.326,VALID,0,VALID,99.8858,VALID,-0.0339617,VALID,18.9141,VALID,157,VALID,0.505609,
2003-03-28, 03:06:00,VALID,917.324,VALID,0,VALID,99.8871,VALID,-0.0509425,VALID,18.9046,VALID,156,VALID,0.731055,
2003-03-28, 03:07:00,VALID,917.313,VALID,0,VALID,99.8845,VALID,-0.0339617,VALID,18.9113,VALID,156,VALID,0.744284,
2003-03-28, 03:08:00,VALID,917.303,VALID,0,VALID,99.8845,VALID,0.0849042,VALID,18.8935,VALID,148,VALID,0.756696,
2003-03-28, 03:09:00,VALID,917.298,VALID,0,VALID,99.8795,VALID,0.0679233,VALID,18.9064,VALID,144,VALID,0.540118,
2003-03-28, 03:10:00,VALID,917.283,VALID,0,VALID,99.8756,VALID,0.0509425,VALID,18.9034,VALID,142,VALID,0.315739,
2003-03-28, 03:11:00,VALID,917.281,VALID,0,VALID,99.8795,VALID,0.0339617,VALID,18.9039,VALID,97,VALID,0.624047,
2003-03-28, 03:12:00,VALID,917.268,VALID,0,VALID,99.8795,VALID,0.0169808,VALID,18.8937,VALID,96,VALID,0.598184,
2003-03-28, 03:13:00,VALID,917.275,VALID,0,VALID,99.8795,VALID,0.101885,VALID,18.8905,VALID,101,VALID,0.422656,
2003-03-28, 03:14:00,VALID,917.273,VALID,0,VALID,99.8858,VALID,0.0679233,VALID,18.887,VALID,105,VALID,0.424777,
2003-03-28, 03:15:00,VALID,917.282,VALID,0,VALID,99.8934,VALID,0.0339617,VALID,18.8905,VALID,103,VALID,0.368973,
2003-03-28, 03:16:00,VALID,917.288,VALID,0,VALID,99.8909,VALID,0.0679233,VALID,18.8868,VALID,103,VALID,0.408036,
2003-03-28, 03:17:00,VALID,917.275,VALID,0,VALID,99.8909,VALID,0.0849042,VALID,18.893,VALID,109,VALID,0.56799,
2003-03-28, 03:18:00,VALID,917.269,VALID,0,VALID,99.8947,VALID,0.0679233,VALID,18.8967,VALID,106,VALID,0.443668,
2003-03-28, 03:19:00,VALID,917.252,VALID,0,VALID,99.8922,VALID,0.0679233,VALID,18.8995,VALID,102,VALID,0.50359,
2003-03-28, 03:20:00,VALID,917.268,VALID,0,VALID,99.8909,VALID,0.0849042,VALID,18.9034,VALID,97,VALID,0.455181,
2003-03-28, 03:21:00,VALID,917.26,VALID,0,VALID,99.8985,VALID,0.101885,VALID,18.8997,VALID,95,VALID,0.217311,
2003-03-28, 03:22:00,VALID,917.246,VALID,0,VALID,99.9049,VALID,0.101885,VALID,18.9196,VALID,95,VALID,0.452148,
2003-03-28, 03:23:00,VALID,917.229,VALID,0,VALID,99.896,VALID,0.0509425,VALID,18.9166,VALID,93,VALID,0.231847,
2003-03-28, 03:24:00,VALID,917.238,VALID,0,VALID,99.9074,VALID,0.0679233,VALID,18.9226,VALID,110,VALID,0.260352,
2003-03-28, 03:25:00,VALID,917.216,VALID,0,VALID,99.9062,VALID,0.0509425,VALID,18.9355,VALID,150,VALID,0.386619,
2003-03-28, 03:26:00,VALID,917.225,VALID,0,VALID,99.9062,VALID,0.0849042,VALID,18.9519,VALID,144,VALID,0.344595,
2003-03-28, 03:27:00,VALID,917.203,VALID,0,VALID,99.9087,VALID,0.0849042,VALID,18.9514,VALID,134,VALID,0.369792,
2003-03-28, 03:28:00,VALID,917.202,VALID,0,VALID,99.9151,VALID,0.0679233,VALID,18.9482,VALID,138,VALID,0.295847,
2003-03-28, 03:29:00,VALID,917.2,VALID,0,VALID,99.9036,VALID,0.101885,VALID,18.9547,VALID,138,VALID,0.330529,
2003-03-28, 03:30:00,VALID,917.185,VALID,0,VALID,99.9036,VALID,0.0849042,VALID,18.948,VALID,138,VALID,0.208651,
2003-03-28, 03:31:00,VALID,917.176,VALID,0,VALID,99.9112,VALID,0.0679233,VALID,18.9646,VALID,138,VALID,0.0148237,
2003-03-28, 03:32:00,VALID,917.183,VALID,0,VALID,99.9252,VALID,0.101885,VALID,18.9643,VALID,138,VALID,0.0346967,
2003-03-28, 03:33:00,VALID,917.162,VALID,0,VALID,99.9214,VALID,0.0679233,VALID,18.9773,VALID,138,VALID,0.230469,